Location: Kershaw
(34.5481°N, 80.5823°W)
Time: 07:22:30
(UTC+00:00)

Tiros 1 despin weight - Pass Details

Date: 08 October 2022
Orbit: 590 x 637 km, 48.2° (Epoch: 28 November)

Event Time Altitude Azimuth Distance (km) Brightness Sun altitude
Rises 19:33:43 0° 259° (W) 2,816 ? 37.0°
Reaches altitude 10° 19:36:11 10° 270° (W) 1,922 ? 36.7°
Maximum altitude 19:40:08 32° 333° (NNW) 1,043 ? 36.1°
Drops below altitude 10° 19:44:09 10° 37° (NE) 1,950 ? 35.4°
Sets 19:46:40 0° 48° (NE) 2,864 ? 35.0°
